DELTA 1 DEB, 21293

Orbit data source: Space-Track

DELTA 1 DEB, 21293 is space debris in SSO originally from a launch on Thu, 12 Jun 1975 UTC launched from the Air Force Western Test Range (AFWTR). Debris objects in space refer to the collection of defunct objects orbiting the Earth. Examples of debris include non-operational satellites, rocket bodies, and fragments generated from explosions, collisions, or faulty payload assembly.

Loading next visibility...
DELTA 1 DEB details
Identifier
21293, 1975-052AE
Orbit
SSO
Last TLE update12 hours ago
Origin
Flag of USGSFC (US)
ManufacturerUnknown
MissionSpacecraft
Bus & MotorUnknown
MassUnknown
Launch date (UTC)
1975-06-12 (50 years ago)
Launch vehicleUnknown
Launch site
Air Force Western Test Range (AFWTR)
Object type
Payload
Rocket body
Debris
Shape & HBRUnknown
Radar Cross SectionSmall (<0.1 m²)

Expand to show TLE details & history

TLE from 12 hours ago
0 DELTA 1 DEB
1 21293U 75052AE  24361.06270351  .00000288  00000-0  10286-2 0  9993
2 21293  99.8468 181.5428 0272130 103.5320  14.2861 12.91572379583702
Epoch: 2024-12-26T01:30Z
Definitive object data (Epoch: 2024-12-26T01:30:17.583Z)
Latitude59.96981°
Longitude-98.69707°
Altitude1,103.342 km
Speed7.402 km/s
True Right ascension01h 15m 41s
True Declination59° 49' 39"
Sunlit
Object was in daylight at TLE epoch
Visualization TLE readout
Latitude-80.19432°
Longitude152.39969°
Altitude1,527.313 km
Speed7.006 km/s
Apparent Right ascension23h 44m 27s
Apparent Declination-67° 55' 23"
Sunlit
Object is in daylight
Visualization observer readout
Local Sidereal Time12:48:17
Azimuth167.823° S
Elevation-60.666°
Doppler factor1
Orbital elements
Apogee altitude1,501.42 km
Perigee altitude1,083.928 km
Semi-major axis7,670.811 km
Eccentricity0.027213
Inclination99.8468°
RAAN181.5428°
Arg. of periapsis103.532°
True anomaly15.08177°
Mean anomaly14.2861°
Eccentric anomaly14.68126°
Mean motion3.23059 °/min
BSTAR0.0010286
Orbital period111.43 mins
Loading maneuver chart data...
Loading historical data...
Loading historical data...
Loading historical data...
Loading historical data...
Loading historical data...
Loading historical data...
Loading historical data...

DELTA 1 DEB Visibility forecast

Observer location: undefined°, undefined

Span
Click to sort rows by Start time (UTC) header in descending order
Start Az.
Max El. time (UTC)
Max El. Az.
Max El.
End time (UTC)
End Az.
5 mins2024-12-26 14:04:37.046Z249.51° W2024-12-26 14:06:37.046Z266.549° W12.809°2024-12-26 14:09:37.046Z292.897° NW
8 mins2024-12-26 23:52:37.046Z58.454° ENE2024-12-26 23:55:37.046Z91.631° ESE20.742°2024-12-27 00:00:37.046Z140.708° SSE
12 mins2024-12-27 01:40:37.046Z4.919° NNE2024-12-27 01:45:37.046Z305.28° NW40.477°2024-12-27 01:52:37.046Z212.918° SW
8 mins2024-12-27 10:33:37.046Z94.198° ESE2024-12-27 10:37:37.046Z53.708° ENE19.303°2024-12-27 10:41:37.046Z16.12° NNE
12 mins2024-12-27 12:20:37.046Z172.7° S2024-12-27 12:26:37.046Z274.572° WNW43.718°2024-12-27 12:32:37.046Z340.605° N
|